Location: Avully
(45.9633°N, 6.0228°E)
Time: 13:11:26
(UTC+00:00)

IDEFIX/ARIANE 42P - Pass Details

Date: 23 May 2024
Orbit: 783 x 799 km, 98.5° (Epoch: 19 June)

Event Time Altitude Azimuth Distance (km) Brightness Sun altitude
Rises 01:18:19 0° 15° (NNE) 3,316 7.3 -19.2°
Reaches altitude 10° 01:20:40 10° 17° (NNE) 2,383 6.3 -19.0°
Maximum altitude 01:25:56 75° 103° (ESE) 830 2.6 -18.6°
Enters shadow 01:28:34 30° 184° (S) 1,393 3.3 -18.4°
